Aérodrome :
LOGIN :

S'inscrire | Disclaimer

   EN    FR    IT 

 










Légende :    VFR   VFR Marginal   IFR   IFR Intensif   IFR Très Intensif
Visi : 
Plafond : 
>= 8 km
>= 3000ft
5 à 8 km
1000 à 3000 ft
1500m à 5 km
500 à 1000 ft
800 à 1500m
200 à 500 ft
< 800m
< 200 ft
Symboles :   Orages  Brouillard  Fortes neiges  Fortes précipitations  Vent > 20 kt
SIGMETs :   Divers  Orages  Givrage  Turbulence  Onde Orograph.  Cendres Volcan.







- Altitude de l'aérodrome : 142 ft
- Code IATA : FLR


LIRQ - Firenze Amerigo Vespucci

DERNIER METAR :
  • 131820Z VRB02KT 9999 SCT040 SCT060 09/04 Q1017

METARs EXPIRÉS :
  • 131750Z VRB01KT 9999 FEW045 BKN060 09/03 Q1017
  • 131720Z 10003KT 070V140 9999 SCT080 08/04 Q1017
  • 131650Z VRB01KT 9999 SCT080 09/04 Q1017
  • 131620Z 21005KT 9999 FEW050 SCT080 10/04 Q1017
  • 131550Z 19005KT 9999 SCT050 10/03 Q1017

TAF TAF LIRQ
Valide du 13 à 18h jusqu'au 14 à 18h UTC


131700Z 1318/1418 VRB05KT 9999 SCT030
BECMG 1402/1404 24015KT
TEMPO 1321/1409 4000 RA
Pas de NOTAMs connus pour ce terrain.



MET'MAP, la Météo Aéronautique d'un coup d'oeil ! - Copyright ORBIFLY Décembre 2007 - Disclaimer

ORBIFLY MET'MAP TEAM :

Programmation & Développement : Alexandra Zaïnal
Conception & Développement : Baudouin d'Aumeries
Co-Programmation & Développement : Marc-Olivier Méhu
Soutien technique & logistique : Manuel Goepfert

Contact : metmap@orbifly.com




SOURCES & CREDITS :

   NOAA